User: anonymous   Login
Location: Lafig�re
(44.4503°N, 4.0357°E)
Time: 11:50:37
(UTC+00:00)
Language:

CZ-2C R/B - Orbit

View from above orbital plane
View from above orbital plane
View from above satellite
View from above satellite

Ground track
Ground track

The orbit data is extracted from the following two-line orbital elements,

1 28480U 04046B   21135.92705319 -.00000012  00000-0  10983-4 0  9993
2 28480  98.0514 150.5518 0141015 320.6506  98.3748 14.25751932857794
Epoch (UTC): 15 May 2021 22:14:57
Eccentricity: 0.0141015
inclination: 98.0514°
perigee height: 704 km
apogee height: 907 km
right ascension of ascending node: 150.5518°
argument of perigee: 320.6506°
revolutions per day: 14.25751932
mean anomaly at epoch: 98.3748°
orbit number at epoch: 85779

The dashed part of the orbit path shows where the satellite is in the earth's shadow,  

DLR